• MPC Preparation (Info)

  • MPEC 2013-K19 : 2013 KQ1

    The following Minor Planet Electronic Circular may be linked-to from your own Web pages, but must not otherwise be redistributed electronically.

    A form allowing access to any MPEC is at the bottom of this page.


    Read MPEC 2013-K18 Read MPEC 2013-K20


    M.P.E.C. 2013-K19                                Issued 2013 May 19, 23:47 UT
    
         The Minor Planet Electronic Circulars contain information on unusual
             minor planets and routine data on comets.  They are published
       on behalf of Commission 20 of the International Astronomical Union by the
              Minor Planet Center, Smithsonian Astrophysical Observatory,
                              Cambridge, MA 02138, U.S.A.
    
                 Prepared using the Tamkin Foundation Computer Network
    
                                  MPC@CFA.HARVARD.EDU
                URL https://www.minorplanetcenter.net/    ISSN 1523-6714
    
                                       2013 KQ1
    
    Observations:
         K13K01Q* C2013 05 16.38462 15 01 17.04 +09 26 46.6          18.7 VuEK019703
         K13K01Q  C2013 05 16.39151 15 01 34.10 +09 26 50.0          19.3 VuEK019703
         K13K01Q  C2013 05 16.39845 15 01 51.27 +09 26 53.1          18.8 VuEK019703
         K13K01Q  C2013 05 16.43023 15 03 10.41 +09 27 00.8          18.7 VuEK019703
         K13K01Q  C2013 05 16.43066 15 03 11.52 +09 27 02.2                uEK019703
         K13K01Q  C2013 05 16.43111 15 03 12.58 +09 27 03.6          18.7 VuEK019703
         K13K01Q  C2013 05 16.43154 15 03 13.59 +09 27 03.8          19.7 VuEK019703
         K13K01Q  C2013 05 16.46808 15 04 46.05 +09 27 12.0          19.4 VuEK019G96
         K13K01Q  C2013 05 16.46835 15 04 46.77 +09 27 12.5          19.9 VuEK019G96
         K13K01Q  C2013 05 16.46863 15 04 47.49 +09 27 12.6          19.1 VuEK019G96
         K13K01Q  C2013 05 16.46892 15 04 48.18 +09 27 12.8          19.1 VuEK019G96
         K13K01Q KC2013 05 17.01977 15 29 25.69 +09 27 37.0                qEK019J95
         K13K01Q KC2013 05 17.02132 15 29 29.53 +09 27 36.5          19.2 RqEK019J95
         K13K01Q KC2013 05 17.02445 15 29 37.45 +09 27 36.7          19.4 RqEK019J95
         K13K01Q  C2013 05 17.34257 15 43 35.40 +09 28 10.6          19.6 VuEK019G96
         K13K01Q  C2013 05 17.34290 15 43 36.26 +09 28 10.7          19.2 VuEK019G96
         K13K01Q  C2013 05 17.34324 15 43 37.05 +09 28 10.7          19.2 VuEK019G96
         K13K01Q KC2013 05 19.26438 17 02 37.36 +08 36 03.5          19.9 VqEK019H21
         K13K01Q KC2013 05 19.26860 17 02 46.08 +08 35 54.2          19.6 VqEK019H21
         K13K01Q KC2013 05 19.27456 17 02 58.34 +08 35 39.7          20.0 VqEK019H21
         K13K01Q  C2013 05 19.34650 17 05 33.74 +08 33 26.9          19.4 RtEK019H01
         K13K01Q  C2013 05 19.35308 17 05 47.01 +08 33 10.5          19.2 RtEK019H01
         K13K01Q  C2013 05 19.36338 17 06 07.75 +08 32 45.3          19.5 RtEK019H01
    
    Observer details:
    703 Catalina Sky Survey.  Observer J. A. Johnson.  Measurers A. Boattini,
        E. J. Christensen, A. R. Gibbs, A. D. Grauer, R. E. Hill, J. A. Johnson,
        R. A. Kowalski, S. M. Larson, R. H. McNaught, F. C. Shelly.  0.68-m
        Schmidt + CCD.
    G96 Mt. Lemmon Survey.  Observer E. J. Christensen.  Measurers A. Boattini,
        E. J. Christensen, A. R. Gibbs, A. D. Grauer, R. E. Hill, J. A. Johnson,
        R. A. Kowalski, S. M. Larson, R. H. McNaught, F. C. Shelly.  1.5-m
        reflector + CCD.
    H01 Magdalena Ridge Observatory, Socorro.  Observers W. H. Ryan, E. V. Ryan.
        Measurer W. H. Ryan.  2.4-m f/8.9 reflector + CCD.
    H21 Astronomical Research Observatory, Westfield.  Observer R. Holmes.
        Measurers L. Buzzi, S. Foglia, T. Vorobjov, H. Devore, A. Kostin.  0.76-m
        f/4.0 astrograph + CCD.
    J95 Great Shefford.  Observer P. Birtwhistle.  0.40-m f/6.0 Schmidt-Cassegrain
        + CCD.
    
    Orbital elements:
    2013 KQ1                                                 Earth MOID = 0.0164 AU
    Epoch 2013 Apr. 18.0 TT = JDT 2456400.5                 MPC
    M 348.41145              (2000.0)            P               Q
    n   0.43669159     Peri.    8.28914     -0.59939945     +0.79995663
    a   1.7206247      Node   224.88974     -0.73666312     -0.56502731
    e   0.4038130      Incl.    2.28200     -0.31312576     -0.20202356
    P   2.26           H   26.8           G   0.15           U   7
    Residuals in seconds of arc
    130516 703  0.4-  0.0     130516 G96  0.4+  0.3+    130517 G96  0.1+  0.3+
    130516 703  0.4+  0.5+    130516 G96  0.5+  0.3+    130519 H21  0.2-  0.1+
    130516 703  0.3+  0.8+    130516 G96  0.2-  0.5+    130519 H21  0.2+  0.6+
    130516 703 (0.3-  2.4-)   130517 J95  0.2+  0.2-    130519 H21  0.2+  0.0
    130516 703  0.2+  1.1-    130517 J95  0.6-  0.4-    130519 H01  0.3+  0.2+
    130516 703  0.8-  0.2+    130517 J95  0.2+  0.3+    130519 H01  0.0   0.3-
    130516 703 (1.8-  0.2+)   130517 G96  0.1+  0.3-    130519 H01  0.6-  0.3-
    130516 G96  0.0   0.2-    130517 G96  0.8+  0.0
    
    Ephemeris:
    2013 KQ1                 a,e,i = 1.72, 0.40, 2                   q = 1.0258
    Date    TT    R. A. (2000) Decl.     Delta      r     Elong.  Phase     V
    2013 04 19    10 21 46.6 +00 23 39   0.09000 1.0617   127.6    48.5    23.5
    ...
    2013 05 04    10 58 16.1 +03 04 14   0.04473 1.0321   121.0    56.8    22.2
    ...
    2013 05 12    12 33 04.1 +06 49 28   0.02323 1.0262   132.9    46.2    20.4
    ...
    2013 05 18    16 12 06.1 +09 21 01   0.01721 1.0264   150.0    29.5    19.3
    2013 05 19    16 52 35.2 +08 50 24   0.01811 1.0269   146.7    32.7    19.5
    2013 05 20    17 28 08.7 +08 08 52   0.01950 1.0274   142.5    36.9    19.8
    ...
    2013 05 26    19 26 11.0 +04 19 44   0.03355 1.0330   125.9    52.6    21.4
    ...
    2013 06 03    20 14 58.6 +01 52 13   0.05696 1.0465   123.1    54.3    22.7
    ...
    2013 06 18    20 35 59.8 -00 49 50   0.1031  1.0889   133.0    43.0    23.7
    
    A. U. Tomatic                (C) Copyright 2013 MPC           M.P.E.C. 2013-K19
    

    Read MPEC 2013-K18 Read MPEC 2013-K20


    MPEC number:

    Enter an MPEC number in one of the following forms:

    • 1997-B01 (the full form)
    • J97B01 (the packed version of the full form)
    • B01 (the abbreviated form)